Lexington Weather

Lexington, Massachusetts, USA

41°F
1/23/2020 11:49am 
  • Lexington Conditions: Clear
  • Temperature: 41.0°F / 5.0°CWarmer 5.8°F than last hour.
  • Dew Point: 21.7°FIncreased 0.5°Fsince last hour.
  • Relative Humidity: 46%Decreased 10.0% since last hour.
  • Wind: Calm, 10-min avg: Calm, gust: 4 mph
  • Barometer: 30.31 inFalling 0.03  inHg/hr Falling Slowly
  • Visibility: 10 miles
  • Rain Today: 0.00 in
  •   

Regional Weather Roundup
for Boston / Norton, MA

        
000
ASUS41 KBOX 211310
RWRBOX

REGIONAL WEATHER ROUNDUP
NATIONAL WEATHER SERVICE BOSTON/NORTON MA
800 AM EST TUE JAN 21 2020

NOTE:  "FAIR" INDICATES FEW OR NO CLOUDS BELOW 12,000 FEET WITH NO 
SIGNIFICANT WEATHER AND/OR OBSTRUCTIONS TO VISIBILITY.

MAZALL-211400-
EASTERN MASSACHUSETTS
  
CITY           SKY/WX    TMP DP  RH WIND       PRES   REMARKS
BOSTON         FAIR      19   1  45 N8        30.42R WCI   9          
BEVERLY        FAIR      11  -2  56 NW8       30.41R WCI  -1          
LAWRENCE       FAIR      10   0  63 CALM      30.43R                  
BEDFORD        FAIR       6  -3  66 CALM      30.41R                  
BLUE HILL      NOT AVBL                                               
NORWOOD        FAIR      11   2  67 CALM      30.42R                  
MARSHFIELD     FAIR      21   7  53 NW8G16    30.40R WCI  12          
PLYMOUTH       FAIR      16   6  65 W5        30.40R WCI   9          
TAUNTON        FAIR      13   3  64 W6        30.41R WCI   4          
NEW BEDFORD    FAIR      15   0  51 VRB5      30.40R WCI   8          
$$

MAZALL-211400-
CAPE COD AND THE ISLANDS
  
CITY           SKY/WX    TMP DP  RH WIND       PRES   REMARKS
FALMOUTH       CLEAR     18   3  53 N13       30.37R WCI   4          
HYANNIS        FAIR      23  12  62 NW6       30.36R WCI  16          
CHATHAM        FAIR      26  18  71 NW8       30.36R WCI  18          
PROVINCETOWN   MOCLDY    25  18  74 N13       30.38R WCI  14          
NANTUCKET      FAIR      27  18  69 NW14      30.35R WCI  16          
MARTHAS VNYRD  FAIR      21  10  62 N14       30.38R WCI   8          
$$
 
MAZALL-211400-
CENTRAL AND WESTERN MASSACHUSETTS
  
CITY           SKY/WX    TMP DP  RH WIND       PRES   REMARKS
WORCESTER      FAIR      12  -1  56 NW9       30.32R WCI   0          
FITCHBURG      FAIR       5  -4  66 CALM      30.40R                  
ORANGE         FAIR      -3  -8  79 CALM      30.40R                  
SPRINGFIELD    CLEAR     -1  -6  80 CALM      30.41R                  
WESTFIELD      FAIR       3  -1  83 CALM      30.42R                  
NORTH ADAMS    FAIR      -2  -6  83 W3        30.42R                  
PITTSFIELD     FAIR       9   1  70 W5        30.34R WCI   1          
$$
 
RIZALL-211400-
RHODE ISLAND
  
CITY           SKY/WX    TMP DP  RH WIND       PRES   REMARKS
PROVIDENCE     FAIR      17   2  51 NW5       30.42R WCI  10          
NEWPORT        FAIR      19   3  49 N7        30.40R WCI  10          
BLOCK ISLAND   FAIR      19   5  54 N12G17    30.42R WCI   7          
SMITHFIELD     FAIR      12   1  61 CALM      30.39R                  
WESTERLY       FAIR      19   2  47 NW3       30.43R                  
$$
 
CTZALL-211400-
CONNECTICUT
  
CITY           SKY/WX    TMP DP  RH WIND       PRES   REMARKS
BRADLEY INTL   FAIR      14   4  64 NW3       30.42R                  
HARTFORD       FAIR      10   8  92 S3        30.44R                  
BRIDGEPORT     FAIR      18   9  68 W3        30.45R                  
DANBURY        FAIR       7   2  80 SW3       30.44R                  
GROTON         FAIR      18   4  54 N7        30.42R WCI   9          
NEW HAVEN      FAIR      20  10  65 NW5       30.44R WCI  13          
CHESTER        FAIR      16   5  62 NW7       30.39S WCI   6          
MERIDEN        FAIR      11   6  81 W7        30.44R WCI   0          
WILLIMANTIC    FAIR       5   0  79 CALM      30.43R                  
OXFORD         FAIR      13   7  77 CALM      30.39R                  
$$

MEZ002-015-021-024-NHZ003-005-008-011-012-014-VTZ005-008-211400-
NORTHERN NEW ENGLAND
  
CITY           SKY/WX    TMP DP  RH WIND       PRES   REMARKS
PORTLAND ME    FAIR       1  -8  66 CALM      30.40R                  
BANGOR ME      FAIR      -1  -5  82 CALM      30.39R                  
CONCORD NH     FAIR       6  -2  69 NW6       30.39R WCI  -4          
MANCHESTER NH  FAIR      13  -1  54 NW8       30.38R WCI   2          
NASHUA NH      FAIR       3  -3  76 CALM      30.41R                  
PORTSMOUTH NH  PTCLDY    12  -2  52 NW5       30.40R WCI   4          
JAFFREY NH     FAIR      -2  -6  83 CALM      30.33R                  
KEENE NH       FAIR      -9 -13  83 S5        30.42R WCI -20          
BURLINGTON VT  MOCLDY    -1  -5  82 NE3       30.45R                  
MT. WASHINGTON PTCLDY     3  -8  60 NW22        N/A  WCI -19          
$$

NYZ052-076-211400-
EASTERN NEW YORK
  
CITY           SKY/WX    TMP DP  RH WIND       PRES   REMARKS
ALBANY         FAIR      10   4  76 N5        30.47R WCI   2          
NEW YORK CITY  FAIR      22  10  60 NW10      30.46R WCI  11          
$$
 
ANZALL-211400-
MARINE OBSERVATIONS
  
STATION/POSITION TIME  TEMP    WIND        PRES    VSBY  WAVE
                       AIR SEA DIR/SP/G                  HT/PER
                 (UTC) (F)     (DEG/KT/KT) (MB)    (MI)  (FT/S)
BOSTON BUOY      1250   21 42  350/ 17/ 21 1028.6R         3/ 3
BUZZARDS BAY     1200   20     350/ 14/ 17 1029.4R
NANTUCKET SOUND  1240                        N/A           2/ 3
MASS BAY-STELLWA 1204   22 41  360/ 17/ 21 1027.0R  1 7/8  3/ 6
ISLE OF SHOALS   1300   19      20/ 10/ 12 1029.2R
S OF BLOCK IS    1300      45                N/A           4/ 5
$$

......................KEY.........................
  SKY/WX - SKY CONDITION/PRESENT WEATHER
  TMP    - TEMPERATURE IN FAHRENHEIT
  DWPT   - DEWPOINT IN FAHRENHEIT
  RH     - RELATIVE HUMIDITY IN PERCENT
  WIND   - DIRECTION AND SPEED IN MPH
  PRES   - MEAN SEA LEVEL PRESSURE IN INCHES OF HG
  WCI    - WIND CHILL INDEX
  VSB    - VISIBILITY IN MILES
  HX     - HEAT INDEX
  TC     - TEMPERATURE IN CELSIUS
  VRB    - VARIABLE WIND DIRECTION
  N/A    - NOT AVAILABLE
  
      

Other recent Regional Weather Roundups

Thu Jan 23, 11:10am

Thu Jan 23, 11:00am

Thu Jan 23, 10:10am

Thu Jan 23, 10:00am

Thu Jan 23, 9:10am

Thu Jan 23, 9:00am

Thu Jan 23, 8:10am

Thu Jan 23, 8:00am

Thu Jan 23, 7:10am

Thu Jan 23, 7:01am

Thu Jan 23, 6:10am

Thu Jan 23, 6:00am

Thu Jan 23, 5:10am

Thu Jan 23, 5:00am

Thu Jan 23, 4:10am

Thu Jan 23, 4:01am

Thu Jan 23, 3:10am

Thu Jan 23, 3:00am

Thu Jan 23, 2:10am

Thu Jan 23, 2:00am

Thu Jan 23, 1:10am

Thu Jan 23, 1:00am

Thu Jan 23, 12:10am

Thu Jan 23, 12:00am

Wed Jan 22, 11:10pm

Wed Jan 22, 11:01pm

Wed Jan 22, 10:10pm

Wed Jan 22, 10:00pm

Wed Jan 22, 9:10pm

Wed Jan 22, 9:00pm

Wed Jan 22, 8:10pm

Wed Jan 22, 8:01pm

Wed Jan 22, 7:10pm

Wed Jan 22, 7:00pm

Wed Jan 22, 6:10pm

Wed Jan 22, 6:01pm

Wed Jan 22, 5:10pm

Wed Jan 22, 5:00pm

Wed Jan 22, 4:10pm

Wed Jan 22, 4:00pm

Wed Jan 22, 3:10pm

Wed Jan 22, 3:00pm

Wed Jan 22, 2:10pm

Wed Jan 22, 2:00pm

Wed Jan 22, 1:10pm

Wed Jan 22, 1:00pm

Wed Jan 22, 12:10pm

Wed Jan 22, 12:00pm

Wed Jan 22, 11:10am

Wed Jan 22, 11:00am

Wed Jan 22, 10:10am

Wed Jan 22, 10:01am

Wed Jan 22, 9:10am

Wed Jan 22, 9:00am

Wed Jan 22, 8:10am

Wed Jan 22, 8:00am

Wed Jan 22, 7:10am

Wed Jan 22, 7:00am

Wed Jan 22, 6:10am

Wed Jan 22, 6:00am

Wed Jan 22, 5:10am

Wed Jan 22, 5:00am

Wed Jan 22, 4:10am

Wed Jan 22, 4:00am

Wed Jan 22, 3:10am

Wed Jan 22, 3:01am

Wed Jan 22, 2:10am

Wed Jan 22, 2:00am

Wed Jan 22, 1:10am

Wed Jan 22, 1:00am

Wed Jan 22, 12:10am

Wed Jan 22, 12:00am

Tue Jan 21, 11:10pm

Tue Jan 21, 11:00pm

Tue Jan 21, 10:10pm

Tue Jan 21, 10:00pm

Tue Jan 21, 9:10pm

Tue Jan 21, 9:01pm

Tue Jan 21, 8:10pm

Tue Jan 21, 8:00pm

Tue Jan 21, 7:10pm

Tue Jan 21, 7:00pm

Tue Jan 21, 6:10pm

Tue Jan 21, 6:01pm

Tue Jan 21, 5:10pm

Tue Jan 21, 5:00pm

Tue Jan 21, 4:10pm

Tue Jan 21, 4:00pm

Tue Jan 21, 3:10pm

Tue Jan 21, 3:01pm

Tue Jan 21, 2:10pm

Tue Jan 21, 2:00pm

Tue Jan 21, 1:10pm

Tue Jan 21, 1:00pm

Tue Jan 21, 12:10pm

Tue Jan 21, 12:00pm

Tue Jan 21, 11:10am

Tue Jan 21, 11:00am

Tue Jan 21, 10:10am

Tue Jan 21, 10:00am

Tue Jan 21, 9:10am

Tue Jan 21, 9:00am

Tue Jan 21, 8:00am

Tue Jan 21, 7:10am

Tue Jan 21, 7:00am

Tue Jan 21, 6:10am

Tue Jan 21, 6:00am

Tue Jan 21, 5:10am

Tue Jan 21, 5:00am

Tue Jan 21, 4:10am

Tue Jan 21, 4:00am

Tue Jan 21, 3:10am

Tue Jan 21, 3:00am

Tue Jan 21, 2:10am

Tue Jan 21, 2:01am

Tue Jan 21, 1:10am

Tue Jan 21, 1:00am

Tue Jan 21, 12:10am

Tue Jan 21, 12:00am

Mon Jan 20, 11:10pm

Mon Jan 20, 11:00pm

Mon Jan 20, 10:10pm

Mon Jan 20, 10:00pm

Mon Jan 20, 9:10pm

Mon Jan 20, 9:00pm

Mon Jan 20, 8:10pm

Mon Jan 20, 8:00pm

Mon Jan 20, 7:10pm

Mon Jan 20, 7:00pm

Mon Jan 20, 6:10pm

Mon Jan 20, 6:00pm

Mon Jan 20, 5:10pm

Mon Jan 20, 5:00pm

Mon Jan 20, 4:10pm

Mon Jan 20, 4:01pm

Mon Jan 20, 3:10pm

Mon Jan 20, 3:00pm

Mon Jan 20, 2:10pm

Mon Jan 20, 2:00pm

Mon Jan 20, 1:10pm

Mon Jan 20, 1:00pm

Mon Jan 20, 12:10pm

Mon Jan 20, 12:00pm

Meta data:

ID: 11989194-366b-400a-abb5-256219fa0864
Link: https://api.weather.gov/products/11989194-366b-400a-abb5-256219fa0864